Location: Baincthun
(50.7099°N, 1.6807°E)
Time: 16:18:10
(UTC+00:00)

Daily predictions for brighter satellites

Satellite Brightness Start Highest point End
(mag) Time Altitude Azimuth Time Altitude Azimuth Time Altitude Azimuth
Cosmos 923 Rocket 4.1 20:13:44 10° NNW 20:19:03 79° ENE 20:24:22 10° SSE
USA 245 3.6 20:19:17 10° SE 20:21:18 25° ENE 20:23:33 10° N
ARIANE 5 R/B 3.5 20:19:30 10° SE 20:23:25 35° ENE 20:27:23 10° N
Cosmos 1271 Rocket 2.9 20:19:43 10° S 20:23:38 56° E 20:27:34 10° NNE
Cosmos 2278 Rocket 2.5 20:21:29 10° SW 20:27:09 75° WNW 20:32:50 10° NNE
Cosmos 1461 4.2 20:23:45 10° S 20:27:32 25° ESE 20:31:17 10° ENE
Cosmos 1666 2.8 20:26:29 10° NNW 20:30:13 75° W 20:33:55 10° S
Cosmos 2369 Rocket 3.8 20:27:23 10° SE 20:30:38 16° E 20:33:54 10° ENE
Cosmos 1818 3.7 20:25:31 10° NW 20:31:02 76° NE 20:36:31 10° SE
Meteor 1-10 Rocket 4.3 20:27:16 10° S 20:32:50 69° E 20:38:33 10° NNE
SL-24 R/B - RUBIN 2 4.1 20:27:47 10° NW 20:33:20 77° SW 20:38:11 10° SSE
Landsat 7 3.9 20:29:27 10° SSE 20:34:12 89° WSW 20:39:00 10° NNW
Cosmos 1536 3.2 20:32:10 10° N 20:36:07 50° ENE 20:40:01 10° SSE
ERBS 2.3 20:33:59 10° WNW 20:37:17 69° SW 20:40:21 11° SE
Cosmos 2154 Rocket 4.1 20:37:51 10° N 20:44:10 69° ENE 20:50:24 10° SSE
SPOT 5 3.7 20:39:51 10° SE 20:44:49 45° ENE 20:49:54 10° N
Cosmos 1812 3.7 20:42:28 10° SSW 20:46:13 50° WNW 20:50:00 10° N
OBJECT-B 3.8 20:44:44 10° WSW 20:46:19 13° W 20:47:54 10° WNW
Cosmos 2074 Rocket 4.2 20:40:22 10° NNW 20:46:42 82° W 20:52:59 10° S
Nadezhda 1 Rocket 4.2 20:40:47 10° S 20:46:53 57° E 20:52:55 10° NNE
Cosmos 2184 Rocket 4.1 20:44:02 10° NNW 20:50:15 80° W 20:56:25 10° S
ERS-1 Rocket 3.4 20:49:06 12° SE 20:53:39 51° ENE 20:58:32 10° N
ISS -3.8 20:53:12 10° WSW 20:56:32 66° SSE 20:59:53 10° ENE
Cosmos 2112 Rocket 4.2 20:52:00 10° NNW 20:57:23 79° WSW 21:02:28 11° SSE
Cosmos 1869 Rocket 3.6 20:55:21 10° NNW 20:59:43 84° W 21:04:04 10° S
Cosmos 967 Rocket 4.5 20:55:34 10° SSW 21:01:43 62° ESE 21:07:55 10° NE
Cosmos 44 4.2 21:00:20 10° NW 21:05:31 46° WSW 21:10:07 12° S
Spot 2 Rocket 3.5 21:00:39 11° SSE 21:05:31 90° E 21:10:36 10° NNW
Cosmos 1937 Rocket 3.7 21:00:40 10° S 21:05:37 51° ESE 21:10:40 10° NNE
Cosmos 1743 2.8 21:04:15 10° N 21:08:07 61° ENE 21:11:02 16° SSE
Cosmos 2228 Rocket 3.2 21:03:54 10° SSW 21:08:22 81° W 21:12:55 10° N
RESURS DK-1 3.4 21:06:51 10° NNW 21:10:46 37° NE 21:13:58 14° ESE
SPOT 1/Viking Rocket 3.9 21:06:12 10° S 21:11:20 64° WSW 21:16:30 10° NNW
Cosmos 2084 Rocket 4.4 21:09:03 10° WNW 21:13:03 40° SW 21:16:25 15° S
Resurs 01 Rocket 3.3 21:10:12 10° SSW 21:14:07 30° W 21:18:04 10° NNW
Cosmos 1707 Rocket 3.7 21:14:45 13° S 21:18:33 59° E 21:22:56 10° NNE
Meteor 1-27 Rocket 3.9 21:13:08 10° SSW 21:19:02 85° WNW 21:25:02 10° NNE
CARTOSAT-1 3.7 21:15:33 14° S 21:19:17 76° WSW 21:23:37 10° NNW
Cosmos 1680 Rocket 4.4 21:17:01 10° NW 21:22:04 45° WSW 21:26:59 11° S
Cosmos 858 Rocket 4.5 21:19:24 10° SSW 21:24:35 69° ESE 21:29:49 10° NNE
Tianhe-1 3.1 21:26:38 10° SW 21:28:08 15° SSW 21:28:08 15° SSW
Cosmos 1867 4.2 21:23:54 11° S 21:28:37 36° ESE 21:33:35 10° NE
SJ 16-02 3.7 21:25:05 10° WSW 21:28:52 27° NW 21:32:40 10° N
DNEPR-1 R/B 3.9 21:23:48 10° SW 21:29:38 81° SE 21:34:29 10° NE
Cosmos 2181 Rocket 4.4 21:25:49 17° SSE 21:30:19 46° E 21:36:08 10° NNE
Cosmos 44 Rocket 4.2 21:28:56 10° NW 21:34:01 47° NE 21:38:15 14° ESE
Cosmos 2297 3.8 21:28:37 10° SSW 21:34:19 83° WNW 21:40:02 10° NNE
BREEZE-M R/B 1.9 21:33:05 10° W 21:35:27 53° SSW 21:36:27 31° SE
SL-27 R/B 3.8 21:33:25 10° N 21:36:20 27° ENE 21:38:02 18° ESE
BREEZE M DEB (TANK) 3.1 21:34:34 10° W 21:36:54 19° SW 21:37:17 18° SSW
Cosmos 1544 4.2 21:37:24 10° NNW 21:40:50 40° W 21:43:38 14° SSW
Cosmos 372 Rocket 4.0 21:36:42 14° S 21:40:59 58° ESE 21:46:00 10° NNE
Terra 1.8 21:38:38 20° SSE 21:41:57 89° W 21:46:45 10° NNW
Cosmos 1515 3.6 21:39:36 20° S 21:42:09 78° E 21:45:58 10° NNE
Cosmos 1733 Rocket 3.0 21:38:04 10° N 21:42:25 88° W 21:45:11 22° S
Cosmos 2082 Rocket 4.3 21:40:12 10° WNW 21:43:53 18° W 21:47:35 10° SW
Cosmos 1943 Rocket 2.2 21:38:55 10° SSW 21:44:33 89° WNW 21:50:11 10° NNE
Cosmos 1340 Rocket 3.9 21:41:12 10° NNW 21:45:02 40° W 21:48:11 14° SSW
USA 215 4.1 21:41:28 10° ENE 21:47:45 52° N 21:54:02 10° WNW
Cosmos 1656 Rocket 4.2 21:46:52 21° SSE 21:49:56 39° ESE 21:55:03 10° NE
ATLAS 2AS CENTAUR R/B 4.0 21:43:47 10° NW 21:50:00 31° WSW 21:55:13 13° S
Cosmos 2341 Rocket 4.1 21:43:48 10° NNW 21:50:14 79° W 21:55:10 18° S
Okean 1 3.2 21:49:16 21° S 21:51:50 83° E 21:55:49 10° NNE
Cosmos 2218 Rocket 4.0 21:47:17 10° N 21:53:39 78° E 21:58:01 22° SSE
Cosmos 1898 Rocket 4.4 21:51:05 10° SW 21:56:16 52° WNW 22:01:31 10° NNE
Cosmos 494 Rocket 4.3 21:52:37 10° NNW 21:57:44 55° ENE 22:00:49 23° SE
ARIANE 5 R/B 4.1 21:56:25 12° SSW 21:59:56 30° W 22:03:47 10° NNW
SL-8 Rocket 4.1 21:55:58 10° NNW 22:02:19 81° W 22:06:45 21° S
H-2A R/B 3.4 21:59:09 10° NNE 22:03:21 88° E 22:05:59 22° SSW
Cosmos 1908 Rocket 3.7 21:59:58 10° N 22:04:25 62° ENE 22:06:34 29° SSE
Cosmos 2298 Rocket 4.4 22:02:56 25° SSE 22:05:36 45° ESE 22:10:39 10° NE
Cosmos 1461 3.6 22:01:40 10° SW 22:06:19 62° NW 22:10:53 10° NE
NOSS 2-1 (C) 4.3 22:05:45 10° NW 22:10:15 64° NE 22:14:45 18° ESE
Cosmos 2369 Rocket 2.1 22:08:17 11° SSW 22:13:47 85° ESE 22:19:30 10° NNE
ATLAS CENTAUR R/B 1.1 22:12:29 33° S 22:13:53 55° SE 22:17:39 10° NE
NOSS 2-1 (D) 4.2 22:12:36 10° NW 22:17:09 70° NE 22:21:25 20° SE
Cosmos 1238 Rocket 4.2 22:14:34 10° NNW 22:20:04 49° W 22:23:11 20° SSW
Okean 1-7 3.3 22:21:21 34° SSE 22:22:50 51° E 22:27:02 10° NNE
SPOT 5 4.4 22:19:04 14° SSW 22:23:00 33° W 22:27:49 10° NNW
COSMOS 2487 4.0 22:20:48 10° N 22:23:43 26° ENE 22:24:59 21° E
Cosmos 2344 4.3 22:16:40 10° NW 22:25:37 85° NE 22:35:50 17° SE
Spot 4 4.1 22:24:53 29° SE 22:27:15 59° ENE 22:32:03 10° N
Cosmos 2242 Rocket 3.6 22:27:54 34° SSE 22:29:43 66° E 22:34:12 10° NNE
Cosmos 1975 3.5 22:27:57 10° NNW 22:31:48 47° W 22:33:30 28° SSW
Cosmos 2150 Rocket 4.0 22:28:55 27° S 22:31:50 68° ESE 22:37:04 10° NNE
ISS -3.6 22:30:01 10° W 22:33:23 73° N 22:36:27 12° E
Cosmos 1125 Rocket 3.6 22:31:08 31° S 22:33:29 56° ESE 22:38:35 10° NNE
Cosmos 1862 Rocket 4.4 22:31:22 17° SW 22:34:26 45° WNW 22:38:37 10° N
Cosmos 1703 Rocket 3.5 22:34:26 36° S 22:36:09 72° E 22:40:36 10° NNE
Cosmos 1782 Rocket 3.6 22:32:48 10° N 22:37:15 74° ENE 22:38:55 37° SSE
Cosmos 1378 3.6 22:38:54 39° ESE 22:39:32 43° E 22:43:05 10° NNE
Cosmos 1607 4.1 22:40:03 10° SW 22:46:32 84° NW 22:53:05 10° NE
RESURS DK-1 3.6 22:45:03 10° NW 22:48:42 30° WSW 22:49:50 26° SW
Cosmos 724 4.5 22:46:12 26° S 22:49:40 59° ESE 22:55:49 10° NE
Lacrosse 5 2.2 22:48:53 35° S 22:50:24 44° SE 22:55:14 10° ENE
Cosmos 1934 Rocket 4.3 22:46:10 10° N 22:52:11 55° ENE 22:55:20 28° SE
Cosmos 1805 3.8 22:50:54 10° N 22:54:41 47° ENE 22:55:42 37° ESE
Cosmos 1066 Rocket 4.4 22:55:52 32° SSE 22:58:16 56° E 23:03:43 10° NNE
Cosmos 1356 Rocket 3.4 22:56:10 10° NNW 23:00:30 81° W 23:01:50 44° S
Cosmos 2227 Rocket 3.7 22:57:07 10° NNW 23:02:08 31° NE 23:07:08 10° ESE
Cosmos 2297 Rocket 3.3 22:58:49 10° NNW 23:04:07 38° NE 23:08:40 13° ESE
Cosmos 1821 Rocket 4.1 22:58:10 10° NNW 23:04:34 76° W 23:07:52 30° S
Okean 3 3.4 23:06:38 46° S 23:07:50 80° E 23:12:04 10° NNE
Meteor 1-12 Rocket 4.3 23:03:46 10° NNW 23:09:35 72° W 23:12:13 33° S
SL-27 R/B 3.9 23:08:32 10° NW 23:11:18 24° WSW 23:11:32 24° WSW
Cosmos 1867 4.3 23:06:44 10° WSW 23:12:04 54° NW 23:17:28 10° NE
Meteor 2-4 Rocket 4.4 23:10:26 19° SW 23:14:17 50° WNW 23:19:39 10° N
NOSS 2-1 (E) 4.3 23:09:46 10° NW 23:14:37 61° SW 23:17:30 32° SSE
Cosmos 44 Rocket 4.1 23:10:42 10° NW 23:15:32 40° WSW 23:16:57 33° SSW
Cosmos 1766 3.6 23:12:23 10° N 23:16:17 56° ENE 23:17:12 43° SE
Meteor 1-15 Rocket 4.2 23:11:22 10° NNW 23:17:09 86° E 23:19:48 34° SSE
Terra 4.2 23:18:09 10° WSW 23:20:24 13° W 23:22:40 10° WNW
Cosmos 2221 Rocket 3.8 23:23:40 42° SSE 23:24:57 59° E 23:29:26 10° NNE
COSMOS 2455 2.9 23:19:03 10° NW 23:25:07 79° NE 23:28:40 26° SE
Cosmos 1943 Rocket 4.4 23:24:40 10° W 23:29:04 23° NW 23:33:29 10° NNE
USA 215 3.7 23:23:53 10° E 23:30:19 64° NNE 23:36:47 10° WNW
ALOS 2 2.7 23:29:20 43° SSW 23:30:34 63° WSW 23:34:57 10° NNW
Cosmos 1535 Rocket 4.5 23:26:38 10° N 23:32:58 87° W 23:36:02 33° S
COBE Rocket 4.0 23:31:00 38° S 23:32:58 75° WSW 23:38:12 10° NNW
Cosmos 1300 Rocket 3.6 23:28:45 10° NNW 23:33:08 70° W 23:34:19 46° SSW
Cosmos 1269 Rocket 4.1 23:27:59 10° NNW 23:33:14 64° WSW 23:35:08 38° S
USA 81 4.3 23:29:00 10° N 23:34:16 62° E 23:36:30 34° SSE
Cosmos 1470 4.0 23:31:40 10° N 23:35:18 34° ENE 23:36:35 27° ESE
Cosmos 2251 Rocket 4.2 23:34:37 10° NNW 23:39:44 50° ENE 23:42:53 22° SE
EO 1 Del DPAF 4.4 23:42:16 10° NE 23:45:31 28° E 23:45:57 27° ESE
Cosmos 1733 3.4 23:42:37 10° NNW 23:46:22 57° W 23:46:57 50° SW
Cosmos 1842 3.6 23:46:42 45° SE 23:47:20 50° E 23:51:08 10° NNE
Meteor 1-23 Rocket 4.3 23:46:20 34° SSW 23:49:02 83° WNW 23:54:54 10° NNE
Thor Agena Rocket 3.6 23:45:27 10° NNE 23:50:44 70° ESE 23:52:46 38° S
ATLAS CENTAUR R/B 3.3 23:49:52 10° W 23:53:02 25° NNW 23:56:20 10° NNE
